User: anonymous   Login
Location: Unspecified
(0.0000°N, 0.0000°E)
Time: 19:03:05
(UTC+00:00)
Language:

Kosmos-2154 - Orbit

View from above orbital plane
View from above orbital plane
View from above satellite
View from above satellite

Ground track
Ground track

The orbit data is extracted from the following two-line orbital elements,

1 21666U 91059A   17084.56232515 +.00000046 +00000-0 +33399-4 0  9995
2 21666 082.9029 092.0340 0024093 219.1787 257.5291 13.73298525282462
Epoch (UTC): 25 March 2017 13:29:44
Eccentricity: 0.0024093
inclination: 82.9029°
perigee height: 970 km
apogee height: 1005 km
right ascension of ascending node: 92.0340°
argument of perigee: 219.1787°
revolutions per day: 13.73298525
mean anomaly at epoch: 257.5291°
orbit number at epoch: 28246

The dashed part of the orbit path shows where the satellite is in the earth's shadow,  

DLR